When you browse on this site, cookies collect data to enhance your experience and personalize the content and advertising you see.
Visit our Privacy Policy to learn more. By continuing to use the site, you agree to this use of cookies and data.
  • In Portugal
  • List of Countries
  • For 7 days
  • Water Temperature
  • Satellite Maps
  • Weather Map
  • Weather Widgets
  • user-avatar
    Login

    Hourly Weather Dvor-Poreche

    Today, 21 November, Wednesday

    Time Temperature Precipitation Wind Pressure Humidity
    00:00 -4°C° 0 mm 1 mps 759 mmHg 90%
    01:00 -4°C° 0 mm 1 mps 759 mmHg 90%
    02:00 -4°C° 0 mm 1 mps 758 mmHg 91%
    03:00 -4°C° 0 mm 1 mps 758 mmHg 90%
    04:00 -3°C° 0 mm 1 mps 758 mmHg 90%
    05:00 -3°C° 0 mm 1 mps 758 mmHg 89%
    06:00 -4°C° 0 mm 1 mps 758 mmHg 90%
    07:00 -4°C° 0 mm 1 mps 758 mmHg 90%
    08:00 -4°C° 0 mm 1 mps 758 mmHg 90%
    09:00 -3°C° 0 mm 1 mps 758 mmHg 88%
    10:00 -4°C° 0 mm 2 mps 758 mmHg 85%
    11:00 -3°C° 0 mm 2 mps 758 mmHg 83%
    12:00 -3°C° 0 mm 2 mps 758 mmHg 83%
    13:00 -2°C° 0 mm 2 mps 758 mmHg 82%
    14:00 -2°C° 0 mm 2 mps 758 mmHg 82%
    15:00 -2°C° 0 mm 2 mps 758 mmHg 83%
    16:00 -2°C° 0 mm 2 mps 758 mmHg 84%
    17:00 -2°C° 0 mm 2 mps 758 mmHg 85%
    18:00 -3°C° 0 mm 2 mps 758 mmHg 85%
    19:00 -3°C° 0 mm 2 mps 758 mmHg 85%
    20:00 -3°C° 0 mm 2 mps 758 mmHg 85%
    21:00 -1°C° 0 mm 1 mps 758 mmHg 86%
    22:00 -1°C° 0 mm 1 mps 758 mmHg 87%
    23:00 -1°C° 0 mm 1 mps 758 mmHg 87%

    Tomorrow, 22 November, Thursday

    Time Temperature Precipitation Wind Pressure Humidity
    00:00 -1°C° 0 mm 1 mps 757 mmHg 88%
    01:00 -3°C° 0 mm 2 mps 757 mmHg 89%
    02:00 -3°C° 0 mm 2 mps 757 mmHg 90%
    03:00 -4°C° 0 mm 2 mps 757 mmHg 91%
    04:00 -4°C° 0 mm 2 mps 757 mmHg 92%
    05:00 -5°C° 0 mm 2 mps 757 mmHg 94%
    06:00 -5°C° 0 mm 2 mps 756 mmHg 94%
    07:00 -5°C° 0 mm 2 mps 756 mmHg 94%
    08:00 -5°C° 0 mm 2 mps 756 mmHg 94%
    09:00 -5°C° 0 mm 3 mps 756 mmHg 91%
    10:00 -4°C° 0 mm 3 mps 756 mmHg 87%
    11:00 -2°C° 0 mm 3 mps 756 mmHg 84%
    12:00 -3°C° 0 mm 4 mps 756 mmHg 82%
    13:00 -3°C° 0 mm 4 mps 755 mmHg 81%
    14:00 -2°C° 0 mm 4 mps 755 mmHg 80%
    15:00 -3°C° 0 mm 4 mps 755 mmHg 83%
    16:00 -4°C° 0 mm 4 mps 755 mmHg 86%
    17:00 -4°C° 0 mm 4 mps 755 mmHg 89%
    18:00 -4°C° 0 mm 4 mps 755 mmHg 89%
    19:00 -4°C° 0 mm 4 mps 755 mmHg 90%
    20:00 -4°C° 0 mm 4 mps 755 mmHg 90%
    21:00 -3°C° 0 mm 4 mps 755 mmHg 89%
    22:00 -2°C° 0 mm 3 mps 755 mmHg 88%
    23:00 -2°C° 0 mm 3 mps 755 mmHg 87%

    Day after tomorrow, 23 November, Friday

    Time Temperature Precipitation Wind Pressure Humidity
    00:00 -2°C° 0 mm 3 mps 755 mmHg 88%
    01:00 -2°C° 0 mm 2 mps 756 mmHg 89%
    02:00 -2°C° 0 mm 2 mps 756 mmHg 90%
    03:00 -2°C° 0 mm 2 mps 756 mmHg 90%
    04:00 -2°C° 0 mm 2 mps 756 mmHg 91%
    05:00 -2°C° 0 mm 2 mps 756 mmHg 91%
    06:00 0°C° 0 mm 1 mps 756 mmHg 92%
    07:00 0°C° 0 mm 1 mps 757 mmHg 92%
    08:00 0°C° 0 mm 1 mps 757 mmHg 92%
    09:00 +1°C° 0 mm 1 mps 757 mmHg 91%
    10:00 +1°C° 0 mm 1 mps 757 mmHg 89%
    11:00 +1°C° 0 mm 1 mps 758 mmHg 87%
    12:00 +2°C° 0 mm 1 mps 757 mmHg 85%
    13:00 +2°C° 0 mm 1 mps 757 mmHg 84%
    14:00 +2°C° 0 mm 1 mps 757 mmHg 83%
    15:00 -1°C° 0 mm 2 mps 757 mmHg 84%
    16:00 -1°C° 0 mm 2 mps 757 mmHg 86%
    17:00 -2°C° 0 mm 2 mps 757 mmHg 88%
    18:00 -2°C° 0 mm 2 mps 756 mmHg 89%
    19:00 -3°C° 0 mm 2 mps 756 mmHg 90%
    20:00 -3°C° 0 mm 2 mps 756 mmHg 91%
    21:00 -4°C° 0 mm 2 mps 756 mmHg 91%
    22:00 -5°C° 0 mm 3 mps 755 mmHg 91%
    23:00 -5°C° 0 mm 3 mps 755 mmHg 91%

    24 November, Saturday

    Time Temperature Precipitation Wind Pressure Humidity
    00:00 -6°C° 0 mm 3 mps 755 mmHg 91%
    01:00 -6°C° 0 mm 3 mps 754 mmHg 90%
    02:00 -6°C° 0 mm 3 mps 754 mmHg 90%
    03:00 -6°C° 0 mm 3 mps 753 mmHg 90%
    04:00 -6°C° 0 mm 3 mps 753 mmHg 89%
    05:00 -6°C° 0 mm 3 mps 752 mmHg 89%
    06:00 -6°C° 0 mm 3 mps 751 mmHg 87%
    07:00 -6°C° 0 mm 3 mps 751 mmHg 85%
    08:00 -6°C° 0 mm 3 mps 750 mmHg 84%
    09:00 -5°C° 0 mm 3 mps 750 mmHg 83%
    10:00 -4°C° 0 mm 4 mps 750 mmHg 82%
    11:00 -3°C° 0 mm 4 mps 750 mmHg 81%
    12:00 -3°C° 0 mm 4 mps 749 mmHg 82%
    13:00 -2°C° 0 mm 3 mps 749 mmHg 82%
    14:00 -1°C° 0 mm 3 mps 748 mmHg 83%
    15:00 -1°C° 0 mm 3 mps 748 mmHg 86%
    16:00 -2°C° 0 mm 3 mps 748 mmHg 88%
    17:00 -2°C° 0 mm 3 mps 748 mmHg 90%
    18:00 -2°C° 0 mm 3 mps 748 mmHg 91%
    19:00 -2°C° 0 mm 2 mps 747 mmHg 92%
    20:00 -1°C° 0 mm 2 mps 747 mmHg 93%
    21:00 -1°C° 0 mm 2 mps 747 mmHg 94%
    22:00 -1°C° 0 mm 2 mps 747 mmHg 95%
    23:00 -1°C° 0 mm 2 mps 747 mmHg 96%

    25 November, Sunday

    Time Temperature Precipitation Wind Pressure Humidity
    00:00 +1°C° 0.1 mm 1 mps 747 mmHg 96%
    01:00 +1°C° 0.1 mm 1 mps 747 mmHg 97%
    02:00 +1°C° 0.1 mm 1 mps 747 mmHg 97%
    03:00 +1°C° 0.2 mm 1 mps 746 mmHg 97%
    04:00 +1°C° 0.2 mm 1 mps 746 mmHg 97%
    05:00 +1°C° 0.2 mm 1 mps 745 mmHg 97%
    06:00 0°C° 0.4 mm 0 mps 745 mmHg 97%
    07:00 0°C° 0.4 mm 0 mps 745 mmHg 97%
    08:00 0°C° 0.4 mm 0 mps 745 mmHg 97%
    09:00 0°C° 0.1 mm 0 mps 745 mmHg 97%
    10:00 +1°C° 0.1 mm 0 mps 745 mmHg 97%
    11:00 +1°C° 0.1 mm 0 mps 745 mmHg 96%
    12:00 +1°C° 0.1 mm 0 mps 744 mmHg 97%
    13:00 +2°C° 0.1 mm 1 mps 744 mmHg 97%
    14:00 +2°C° 0.1 mm 1 mps 744 mmHg 97%
    15:00 +2°C° 0.1 mm 1 mps 744 mmHg 97%
    16:00 +2°C° 0.1 mm 1 mps 744 mmHg 97%
    17:00 -1°C° 0.1 mm 2 mps 744 mmHg 96%
    18:00 -1°C° 0.2 mm 2 mps 744 mmHg 96%
    19:00 -1°C° 0.2 mm 3 mps 744 mmHg 95%
    20:00 -1°C° 0.2 mm 3 mps 744 mmHg 94%
    21:00 -2°C° 0.2 mm 3 mps 744 mmHg 93%
    22:00 -3°C° 0.2 mm 4 mps 743 mmHg 92%
    23:00 -3°C° 0.2 mm 4 mps 743 mmHg 91%

    26 November, Monday

    Time Temperature Precipitation Wind Pressure Humidity
    00:00 -4°C° 0.1 mm 4 mps 743 mmHg 91%
    01:00 -5°C° 0.1 mm 4 mps 743 mmHg 91%
    02:00 -5°C° 0.1 mm 4 mps 743 mmHg 91%
    03:00 -5°C° 0 mm 4 mps 743 mmHg 91%
    04:00 -7°C° 0 mm 4 mps 743 mmHg 91%
    05:00 -7°C° 0 mm 4 mps 743 mmHg 91%
    06:00 -7°C° 0 mm 4 mps 744 mmHg 90%
    07:00 -7°C° 0 mm 4 mps 744 mmHg 89%
    08:00 -7°C° 0 mm 4 mps 744 mmHg 87%
    09:00 -7°C° 0.1 mm 4 mps 744 mmHg 86%
    10:00 -5°C° 0.1 mm 4 mps 744 mmHg 85%
    11:00 -5°C° 0.1 mm 4 mps 744 mmHg 84%
    12:00 -5°C° 0.1 mm 4 mps 744 mmHg 83%
    13:00 -5°C° 0.1 mm 4 mps 744 mmHg 82%
    14:00 -5°C° 0.1 mm 4 mps 744 mmHg 81%
    15:00 -7°C° 0 mm 4 mps 744 mmHg 82%
    16:00 -7°C° 0 mm 4 mps 745 mmHg 82%
    17:00 -8°C° 0 mm 4 mps 745 mmHg 83%
    18:00 -8°C° 0 mm 5 mps 745 mmHg 83%
    19:00 -7°C° 0 mm 5 mps 745 mmHg 82%
    20:00 -7°C° 0 mm 5 mps 745 mmHg 82%
    21:00 -8°C° 0 mm 5 mps 746 mmHg 83%
    22:00 -8°C° 0 mm 4 mps 746 mmHg 84%
    23:00 -8°C° 0 mm 4 mps 746 mmHg 86%
    Show more